Time,TemperatureF,DewpointF,PressureIn,WindDirection,WindDirectionDegrees,WindSpeedMPH,WindSpeedGustMPH,Humidity,HourlyPrecipIn,Conditions,Clouds,dailyrainin,SoftwareType,DateUTC
2013-04-16 00:00:00,38.7,31.1,30.12,NNW,328,3.5,6.9,74,0.00,CLR,SKC,0.00,WeatherDisplay:10.37,2013-04-16 05:00:00,
2013-04-16 00:05:00,38.5,30.9,30.11,North,11,1.7,3.5,74,0.00,CLR,SKC,0.00,WeatherDisplay:10.37,2013-04-16 05:05:00,
2013-04-16 00:10:00,38.4,30.8,30.12,NNW,338,3.1,4.6,74,0.00,CLR,SKC,0.00,WeatherDisplay:10.37,2013-04-16 05:10:00,
2013-04-16 00:15:00,38.3,30.7,30.12,North,356,2.5,3.5,74,0.00,CLR,SKC,0.00,WeatherDisplay:10.37,2013-04-16 05:15:00,
2013-04-16 00:20:00,38.0,30.8,30.12,North,11,1.9,3.5,75,0.00,CLR,SKC,0.00,WeatherDisplay:10.37,2013-04-16 05:20:00,
2013-04-16 00:25:00,37.8,30.6,30.11,NNW,331,2.1,2.3,75,0.00,CLR,SKC,0.00,WeatherDisplay:10.37,2013-04-16 05:25:00,
2013-04-16 00:30:00,37.6,30.7,30.11,North,352,1.8,3.5,76,0.00,CLR,SKC,0.00,WeatherDisplay:10.37,2013-04-16 05:30:00,
2013-04-16 00:35:00,37.5,30.6,30.11,North,7,1.8,4.0,76,0.00,CLR,SKC,0.00,WeatherDisplay:10.37,2013-04-16 05:35:00,
2013-04-16 00:40:00,37.4,30.8,30.11,North,358,2.5,3.5,77,0.00,CLR,SKC,0.00,WeatherDisplay:10.37,2013-04-16 05:40:00,
2013-04-16 00:45:00,37.3,30.7,30.11,NE,38,2.0,3.5,77,0.00,CLR,SKC,0.00,WeatherDisplay:10.37,2013-04-16 05:45:00,
2013-04-16 00:50:00,37.1,30.6,30.11,NNW,338,1.6,3.5,77,0.00,CLR,SKC,0.00,WeatherDisplay:10.37,2013-04-16 05:50:00,
2013-04-16 00:55:00,37.0,30.8,30.11,North,351,2.7,3.5,78,0.00,CLR,SKC,0.00,WeatherDisplay:10.37,2013-04-16 05:55:00,
2013-04-16 01:00:00,36.9,30.7,30.11,NE,40,2.8,4.0,78,0.00,CLR,SKC,0.00,WeatherDisplay:10.37,2013-04-16 06:00:00,
2013-04-16 01:05:00,36.9,30.7,30.10,North,9,2.7,5.0,78,0.00,CLR,SKC,0.00,WeatherDisplay:10.37,2013-04-16 06:05:00,
2013-04-16 01:10:00,36.8,30.6,30.10,NNE,25,3.0,6.0,78,0.00,CLR,SKC,0.00,WeatherDisplay:10.37,2013-04-16 06:10:00,
2013-04-16 01:15:00,36.9,30.7,30.10,North,1,3.1,4.6,78,0.00,CLR,SKC,0.00,WeatherDisplay:10.37,2013-04-16 06:15:00,
2013-04-16 01:20:00,36.8,30.6,30.10,North,6,2.2,4.0,78,0.00,CLR,SKC,0.00,WeatherDisplay:10.37,2013-04-16 06:20:00,
2013-04-16 01:26:00,36.9,30.7,30.10,NNW,347,3.2,5.0,78,0.00,SCT,SKC,0.00,WeatherDisplay:10.37,2013-04-16 06:26:00,
2013-04-16 01:31:00,36.9,30.7,30.11,North,360,2.0,3.5,78,0.00,SCT,SKC,0.00,WeatherDisplay:10.37,2013-04-16 06:31:00,
2013-04-16 01:36:00,37.0,31.1,30.12,NW,326,3.6,5.8,79,0.00,SCT,SKC,0.00,WeatherDisplay:10.37,2013-04-16 06:36:00,
2013-04-16 01:41:00,37.0,30.8,30.11,NW,325,3.1,6.0,78,0.00,SCT,SKC,0.00,WeatherDisplay:10.37,2013-04-16 06:41:00,
2013-04-16 01:46:00,37.1,31.2,30.12,NNW,336,3.9,5.8,79,0.00,BKN,SKC,0.00,WeatherDisplay:10.37,2013-04-16 06:46:00,
2013-04-16 01:51:00,37.1,30.9,30.11,North,360,4.2,4.6,78,0.00,BKN,SKC,0.00,WeatherDisplay:10.37,2013-04-16 06:51:00,
2013-04-16 01:56:00,37.0,30.8,30.11,NNW,338,2.5,3.5,78,0.00,BKN,SKC,0.00,WeatherDisplay:10.37,2013-04-16 06:56:00,
2013-04-16 02:01:00,37.0,30.8,30.11,North,359,3.2,6.9,78,0.00,BKN,SKC,0.00,WeatherDisplay:10.37,2013-04-16 07:01:00,
2013-04-16 02:06:00,37.0,30.8,30.12,NNW,338,2.7,3.5,78,0.00,OVC,SKC,0.00,WeatherDisplay:10.37,2013-04-16 07:06:00,
2013-04-16 02:11:00,36.9,30.7,30.11,NNE,30,4.9,6.9,78,0.00,OVC,SKC,0.00,WeatherDisplay:10.37,2013-04-16 07:11:00,
2013-04-16 02:16:00,36.9,30.7,30.12,NW,316,2.9,4.6,78,0.00,OVC,SKC,0.00,WeatherDisplay:10.37,2013-04-16 07:16:00,
2013-04-16 02:21:00,36.8,30.6,30.11,NNW,329,3.6,5.8,78,0.00,OVC,SKC,0.00,WeatherDisplay:10.37,2013-04-16 07:21:00,
2013-04-16 02:26:00,36.8,30.9,30.12,NNW,327,3.6,5.8,79,0.00,BKN,SKC,0.00,WeatherDisplay:10.37,2013-04-16 07:26:00,
2013-04-16 02:31:00,36.7,30.8,30.11,North,4,3.8,5.8,79,0.00,BKN,SKC,0.00,WeatherDisplay:10.37,2013-04-16 07:31:00,
2013-04-16 02:36:00,36.7,30.8,30.12,NNW,341,7.8,11.5,79,0.00,BKN,SKC,0.00,WeatherDisplay:10.37,2013-04-16 07:36:00,
2013-04-16 02:41:00,36.6,30.7,30.11,NW,326,5.6,8.1,79,0.00,BKN,SKC,0.00,WeatherDisplay:10.37,2013-04-16 07:41:00,
2013-04-16 02:46:00,36.5,30.6,30.11,North,352,4.3,7.0,79,0.00,BKN,SKC,0.00,WeatherDisplay:10.37,2013-04-16 07:46:00,
2013-04-16 02:51:00,36.4,30.5,30.11,NNW,346,7.7,11.5,79,0.00,BKN,SKC,0.00,WeatherDisplay:10.37,2013-04-16 07:51:00,
2013-04-16 02:56:00,36.3,30.4,30.11,NNW,335,5.3,8.1,79,0.00,BKN,SKC,0.00,WeatherDisplay:10.37,2013-04-16 07:56:00,
2013-04-16 03:01:00,36.3,30.4,30.12,North,349,6.8,10.4,79,0.00,OVC,SKC,0.00,WeatherDisplay:10.37,2013-04-16 08:01:00,
2013-04-16 03:06:00,36.2,30.3,30.11,NNE,30,5.8,6.9,79,0.00,OVC,SKC,0.00,WeatherDisplay:10.37,2013-04-16 08:06:00,
2013-04-16 03:11:00,36.1,30.2,30.12,NE,34,6.6,10.4,79,0.00,OVC,SKC,0.00,WeatherDisplay:10.37,2013-04-16 08:11:00,
2013-04-16 03:16:00,36.1,30.2,30.13,NNE,25,5.5,6.9,79,0.00,OVC,SKC,0.00,WeatherDisplay:10.37,2013-04-16 08:16:00,
2013-04-16 03:21:00,36.0,30.1,30.14,North,11,6.2,9.0,79,0.00,SCT,SKC,0.00,WeatherDisplay:10.37,2013-04-16 08:21:00,
2013-04-16 03:26:00,36.0,29.8,30.14,NNW,336,5.1,6.9,78,0.00,SCT,SKC,0.00,WeatherDisplay:10.37,2013-04-16 08:26:00,
2013-04-16 03:32:00,36.0,29.5,30.14,NNW,342,7.0,9.2,77,0.00,SCT,SKC,0.00,WeatherDisplay:10.37,2013-04-16 08:32:00,
2013-04-16 03:37:00,36.0,29.2,30.15,NNW,338,3.1,6.9,76,0.00,SCT,SKC,0.00,WeatherDisplay:10.37,2013-04-16 08:37:00,
2013-04-16 03:42:00,36.0,29.2,30.15,NNW,330,3.8,5.8,76,0.00,BKN,SKC,0.00,WeatherDisplay:10.37,2013-04-16 08:42:00,
2013-04-16 03:47:00,35.9,29.1,30.15,NW,323,3.4,6.9,76,0.00,BKN,SKC,0.00,WeatherDisplay:10.37,2013-04-16 08:47:00,
2013-04-16 03:52:00,36.0,28.8,30.16,NNW,335,1.5,6.9,75,0.00,BKN,SKC,0.00,WeatherDisplay:10.37,2013-04-16 08:52:00,
2013-04-16 03:57:00,36.0,28.8,30.16,NNW,336,3.8,3.8,75,0.00,BKN,SKC,0.00,WeatherDisplay:10.37,2013-04-16 08:57:00,
2013-04-16 04:02:00,36.0,28.5,30.16,NNW,336,6.2,7.0,74,0.00,BKN,SKC,0.00,WeatherDisplay:10.37,2013-04-16 09:02:00,
2013-04-16 04:07:00,36.0,28.5,30.16,NNW,331,3.4,4.6,74,0.00,BKN,SKC,0.00,WeatherDisplay:10.37,2013-04-16 09:07:00,
2013-04-16 04:12:00,35.9,28.4,30.17,NNW,330,4.4,6.9,74,0.00,BKN,SKC,0.00,WeatherDisplay:10.37,2013-04-16 09:12:00,
2013-04-16 04:17:00,35.9,28.4,30.16,North,11,4.9,7.0,74,0.00,BKN,SKC,0.00,WeatherDisplay:10.37,2013-04-16 09:17:00,
2013-04-16 04:22:00,35.8,28.6,30.17,NNW,336,1.9,3.5,75,0.00,OVC,SKC,0.00,WeatherDisplay:10.37,2013-04-16 09:22:00,
2013-04-16 04:27:00,35.8,28.6,30.16,NNE,25,5.3,8.0,75,0.00,OVC,SKC,0.00,WeatherDisplay:10.37,2013-04-16 09:27:00,
2013-04-16 04:32:00,35.7,28.6,30.17,NW,323,2.5,3.5,75,0.00,OVC,SKC,0.00,WeatherDisplay:10.37,2013-04-16 09:32:00,
2013-04-16 04:37:00,35.7,28.6,30.17,NNW,340,2.0,3.5,75,0.00,OVC,SKC,0.00,WeatherDisplay:10.37,2013-04-16 09:37:00,
2013-04-16 04:42:00,35.7,28.6,30.17,North,4,1.2,3.0,75,0.00,OVC,SKC,0.00,WeatherDisplay:10.37,2013-04-16 09:42:00,
2013-04-16 04:47:00,35.7,28.9,30.17,North,357,3.7,5.8,76,0.00,OVC,SKC,0.00,WeatherDisplay:10.37,2013-04-16 09:47:00,
2013-04-16 04:52:00,35.7,28.6,30.17,NE,34,2.6,3.5,75,0.00,OVC,SKC,0.00,WeatherDisplay:10.37,2013-04-16 09:52:00,
2013-04-16 04:57:00,35.6,28.5,30.18,NNW,335,4.7,5.8,75,0.00,OVC,SKC,0.00,WeatherDisplay:10.37,2013-04-16 09:57:00,
2013-04-16 05:02:00,35.6,28.5,30.18,North,359,4.1,7.0,75,0.00,OVC,SKC,0.00,WeatherDisplay:10.37,2013-04-16 10:02:00,
2013-04-16 05:07:00,35.6,28.5,30.18,NE,48,3.4,4.6,75,0.00,OVC,SKC,0.00,WeatherDisplay:10.37,2013-04-16 10:07:00,
2013-04-16 05:12:00,35.5,28.4,30.18,NE,40,4.4,5.8,75,0.00,OVC,SKC,0.00,WeatherDisplay:10.37,2013-04-16 10:12:00,
2013-04-16 05:17:00,35.5,28.7,30.17,North,1,3.0,4.6,76,0.00,OVC,SKC,0.00,WeatherDisplay:10.37,2013-04-16 10:17:00,
2013-04-16 05:22:00,35.5,28.7,30.18,NNW,332,3.6,5.8,76,0.00,BKN,SKC,0.00,WeatherDisplay:10.37,2013-04-16 10:22:00,
2013-04-16 05:27:00,35.4,28.6,30.18,North,359,4.4,5.0,76,0.00,BKN,SKC,0.00,WeatherDisplay:10.37,2013-04-16 10:27:00,
2013-04-16 05:32:00,35.4,28.6,30.18,NNW,332,5.3,7.0,76,0.00,BKN,SKC,0.00,WeatherDisplay:10.37,2013-04-16 10:32:00,
2013-04-16 05:37:00,35.4,28.6,30.18,NNW,343,5.0,6.0,76,0.00,BKN,SKC,0.00,WeatherDisplay:10.37,2013-04-16 10:37:00,
2013-04-16 05:42:00,35.4,28.9,30.18,NNE,25,2.8,5.8,77,0.00,SCT,SKC,0.00,WeatherDisplay:10.37,2013-04-16 10:42:00,
2013-04-16 05:47:00,35.3,28.8,30.18,NE,34,2.4,3.5,77,0.00,SCT,SKC,0.00,WeatherDisplay:10.37,2013-04-16 10:47:00,
2013-04-16 05:52:00,35.3,28.8,30.18,North,351,2.4,4.6,77,0.00,SCT,SKC,0.00,WeatherDisplay:10.37,2013-04-16 10:52:00,
2013-04-16 05:57:00,35.3,28.8,30.20,NW,314,1.4,2.3,77,0.00,SCT,SKC,0.00,WeatherDisplay:10.37,2013-04-16 10:57:00,
2013-04-16 06:02:00,35.3,28.8,30.20,NW,321,3.3,4.6,77,0.00,BKN,SKC,0.00,WeatherDisplay:10.37,2013-04-16 11:02:00,
2013-04-16 06:07:00,35.3,28.8,30.20,NNW,343,2.0,3.5,77,0.00,BKN,SKC,0.00,WeatherDisplay:10.37,2013-04-16 11:07:00,
2013-04-16 06:12:00,35.2,29.0,30.19,NNW,327,4.7,5.0,78,0.00,BKN,SKC,0.00,WeatherDisplay:10.37,2013-04-16 11:12:00,
2013-04-16 06:17:00,35.2,29.0,30.17,North,355,5.1,7.0,78,0.00,BKN,SKC,0.00,WeatherDisplay:10.37,2013-04-16 11:17:00,
2013-04-16 06:22:00,35.1,28.9,30.18,NW,325,5.0,6.9,78,0.00,OVC,SKC,0.00,WeatherDisplay:10.37,2013-04-16 11:22:00,
2013-04-16 06:27:00,35.1,28.9,30.19,North,349,3.5,5.8,78,0.00,OVC,SKC,0.00,WeatherDisplay:10.37,2013-04-16 11:27:00,
2013-04-16 06:32:00,35.0,28.8,30.18,NNE,13,4.6,6.9,78,0.00,OVC,SKC,0.00,WeatherDisplay:10.37,2013-04-16 11:32:00,
2013-04-16 06:37:00,35.0,28.8,30.18,NNE,26,6.6,8.1,78,0.00,OVC,SKC,0.00,WeatherDisplay:10.37,2013-04-16 11:37:00,
2013-04-16 06:42:00,35.0,28.8,30.19,NNW,332,2.7,5.8,78,0.00,SCT,SKC,0.00,WeatherDisplay:10.37,2013-04-16 11:42:00,
2013-04-16 06:47:00,35.0,28.8,30.19,North,355,4.7,6.9,78,0.00,SCT,SKC,0.00,WeatherDisplay:10.37,2013-04-16 11:47:00,
2013-04-16 06:52:00,35.1,28.9,30.19,NNE,17,2.8,4.6,78,0.00,SCT,SKC,0.00,WeatherDisplay:10.37,2013-04-16 11:52:00,
2013-04-16 06:57:00,35.0,28.8,30.19,NNW,328,3.6,5.8,78,0.00,SCT,SKC,0.00,WeatherDisplay:10.37,2013-04-16 11:57:00,
2013-04-16 07:02:00,35.0,28.8,30.20,NNW,330,2.6,3.5,78,0.00,SCT,SKC,0.00,WeatherDisplay:10.37,2013-04-16 12:02:00,
2013-04-16 07:07:00,35.0,28.8,30.20,North,351,4.5,6.9,78,0.00,SCT,SKC,0.00,WeatherDisplay:10.37,2013-04-16 12:07:00,
2013-04-16 07:12:00,35.0,28.8,30.20,North,355,2.8,3.5,78,0.00,SCT,SKC,0.00,WeatherDisplay:10.37,2013-04-16 12:12:00,
2013-04-16 07:17:00,35.1,28.9,30.21,NNW,333,2.4,3.5,78,0.00,SCT,SKC,0.00,WeatherDisplay:10.37,2013-04-16 12:17:00,
2013-04-16 07:22:00,35.1,28.9,30.21,North,360,1.0,2.3,78,0.00,BKN,SKC,0.00,WeatherDisplay:10.37,2013-04-16 12:22:00,
2013-04-16 07:27:00,35.1,28.9,30.21,NNW,338,0.9,2.3,78,0.00,BKN,SKC,0.00,WeatherDisplay:10.37,2013-04-16 12:27:00,
2013-04-16 07:32:00,35.1,28.9,30.22,NNE,20,1.8,4.0,78,0.00,BKN,SKC,0.00,WeatherDisplay:10.37,2013-04-16 12:32:00,
2013-04-16 07:38:00,35.2,29.0,30.22,NNE,33,3.0,6.0,78,0.00,BKN,SKC,0.00,WeatherDisplay:10.37,2013-04-16 12:38:00,
2013-04-16 07:43:00,35.2,29.0,30.23,North,351,1.1,2.0,78,0.00,OVC,SKC,0.00,WeatherDisplay:10.37,2013-04-16 12:43:00,
2013-04-16 07:48:00,35.3,29.1,30.23,North,1,3.3,3.5,78,0.00,OVC,SKC,0.00,WeatherDisplay:10.37,2013-04-16 12:48:00,
2013-04-16 07:53:00,35.3,29.1,30.22,North,8,2.9,4.6,78,0.00,OVC,SKC,0.00,WeatherDisplay:10.37,2013-04-16 12:53:00,
2013-04-16 07:58:00,35.3,29.1,30.23,NNE,27,4.3,5.8,78,0.00,OVC,SKC,0.00,WeatherDisplay:10.37,2013-04-16 12:58:00,
2013-04-16 08:03:00,35.3,29.1,30.23,NNW,347,6.7,9.2,78,0.00,OVC,SKC,0.00,WeatherDisplay:10.37,2013-04-16 13:03:00,
2013-04-16 08:08:00,35.3,29.1,30.23,North,4,4.5,5.8,78,0.00,OVC,SKC,0.00,WeatherDisplay:10.37,2013-04-16 13:08:00,
2013-04-16 08:13:00,35.4,29.2,30.23,NNE,20,2.4,8.1,78,0.00,OVC,SKC,0.00,WeatherDisplay:10.37,2013-04-16 13:13:00,
2013-04-16 08:18:00,35.4,29.2,30.23,NNE,14,4.0,5.0,78,0.00,OVC,SKC,0.00,WeatherDisplay:10.37,2013-04-16 13:18:00,
2013-04-16 08:23:00,35.5,29.0,30.24,NNW,333,4.8,8.1,77,0.00,BKN,SKC,0.00,WeatherDisplay:10.37,2013-04-16 13:23:00,
2013-04-16 08:28:00,35.5,29.0,30.23,NNW,344,5.0,5.8,77,0.00,BKN,SKC,0.00,WeatherDisplay:10.37,2013-04-16 13:28:00,
2013-04-16 08:33:00,35.5,29.0,30.23,NE,37,2.9,5.8,77,0.00,BKN,SKC,0.00,WeatherDisplay:10.37,2013-04-16 13:33:00,
2013-04-16 08:38:00,35.6,29.1,30.24,North,11,3.7,5.8,77,0.00,BKN,SKC,0.00,WeatherDisplay:10.37,2013-04-16 13:38:00,
2013-04-16 08:43:00,35.7,29.2,30.24,NNE,13,3.7,6.0,77,0.00,BKN,SKC,0.00,WeatherDisplay:10.37,2013-04-16 13:43:00,
2013-04-16 08:48:00,35.9,29.4,30.24,WNW,291,2.6,3.5,77,0.00,BKN,SKC,0.00,WeatherDisplay:10.37,2013-04-16 13:48:00,
2013-04-16 08:53:00,36.0,29.2,30.25,North,349,5.4,5.4,76,0.00,BKN,SKC,0.00,WeatherDisplay:10.37,2013-04-16 13:53:00,
2013-04-16 08:58:00,36.0,29.2,30.24,NNW,333,4.3,7.0,76,0.00,BKN,SKC,0.00,WeatherDisplay:10.37,2013-04-16 13:58:00,
2013-04-16 09:03:00,36.1,29.3,30.25,North,3,2.8,7.0,76,0.00,BKN,SKC,0.00,WeatherDisplay:10.37,2013-04-16 14:03:00,
2013-04-16 09:08:00,36.1,28.9,30.25,North,356,4.6,6.0,75,0.00,BKN,SKC,0.00,WeatherDisplay:10.37,2013-04-16 14:08:00,
2013-04-16 09:13:00,36.1,28.9,30.25,NNE,21,4.8,8.0,75,0.00,BKN,SKC,0.00,WeatherDisplay:10.37,2013-04-16 14:13:00,
2013-04-16 09:18:00,36.1,28.9,30.25,NE,48,5.0,5.8,75,0.00,BKN,SKC,0.00,WeatherDisplay:10.37,2013-04-16 14:18:00,
2013-04-16 09:23:00,36.3,29.1,30.25,North,359,3.6,5.8,75,0.00,OVC,SKC,0.00,WeatherDisplay:10.37,2013-04-16 14:23:00,
2013-04-16 09:28:00,36.5,29.3,30.25,NNW,338,2.1,3.5,75,0.00,OVC,SKC,0.00,WeatherDisplay:10.37,2013-04-16 14:28:00,
2013-04-16 09:33:00,36.6,29.1,30.26,NNW,338,5.2,6.9,74,0.00,OVC,SKC,0.00,WeatherDisplay:10.37,2013-04-16 14:33:00,
2013-04-16 09:38:00,36.8,29.3,30.26,North,5,4.8,5.8,74,0.00,OVC,SKC,0.00,WeatherDisplay:10.37,2013-04-16 14:38:00,
2013-04-16 09:43:00,36.8,29.0,30.26,NNW,328,4.6,7.0,73,0.00,BKN,SKC,0.00,WeatherDisplay:10.37,2013-04-16 14:43:00,
2013-04-16 09:48:00,36.9,29.1,30.26,NW,320,3.0,4.0,73,0.00,BKN,SKC,0.00,WeatherDisplay:10.37,2013-04-16 14:48:00,
2013-04-16 09:53:00,37.1,29.2,30.26,NNW,333,5.0,8.1,73,0.00,BKN,SKC,0.00,WeatherDisplay:10.37,2013-04-16 14:53:00,
2013-04-16 09:58:00,37.1,28.6,30.26,NNE,23,4.5,6.9,71,0.00,BKN,SKC,0.00,WeatherDisplay:10.37,2013-04-16 14:58:00,
2013-04-16 10:03:00,37.2,29.0,30.26,NNE,19,4.7,8.1,72,0.00,BKN,SKC,0.00,WeatherDisplay:10.37,2013-04-16 15:03:00,
2013-04-16 10:08:00,37.5,28.9,30.26,North,357,3.4,9.2,71,0.00,BKN,SKC,0.00,WeatherDisplay:10.37,2013-04-16 15:08:00,
2013-04-16 10:13:00,37.7,29.5,30.26,NNE,18,4.0,8.0,72,0.00,BKN,SKC,0.00,WeatherDisplay:10.37,2013-04-16 15:13:00,
2013-04-16 10:18:00,37.9,29.7,30.26,North,6,3.7,5.0,72,0.00,BKN,SKC,0.00,WeatherDisplay:10.37,2013-04-16 15:18:00,
2013-04-16 10:23:00,37.9,29.0,30.26,NNW,333,5.4,8.1,70,0.00,BKN,SKC,0.00,WeatherDisplay:10.37,2013-04-16 15:23:00,
2013-04-16 10:28:00,38.2,29.6,30.26,NE,41,1.6,3.5,71,0.00,BKN,SKC,0.00,WeatherDisplay:10.37,2013-04-16 15:28:00,
2013-04-16 10:33:00,38.8,29.1,30.26,NNE,20,6.4,8.1,68,0.00,BKN,SKC,0.00,WeatherDisplay:10.37,2013-04-16 15:33:00,
2013-04-16 10:38:00,38.9,29.9,30.26,NNE,18,6.1,10.4,70,0.00,BKN,SKC,0.00,WeatherDisplay:10.37,2013-04-16 15:38:00,
2013-04-16 10:43:00,39.4,29.3,30.26,North,349,6.2,9.2,67,0.00,SCT,SKC,0.00,WeatherDisplay:10.37,2013-04-16 15:43:00,
2013-04-16 10:48:00,39.5,28.3,30.27,NNE,13,8.2,13.8,64,0.00,SCT,SKC,0.00,WeatherDisplay:10.37,2013-04-16 15:48:00,
2013-04-16 10:53:00,39.6,28.8,30.27,NE,38,5.1,8.0,65,0.00,SCT,SKC,0.00,WeatherDisplay:10.37,2013-04-16 15:53:00,
2013-04-16 10:58:00,39.7,29.6,30.27,NNE,25,3.5,5.0,67,0.00,SCT,SKC,0.00,WeatherDisplay:10.37,2013-04-16 15:58:00,
2013-04-16 11:03:00,39.7,29.3,30.26,NE,40,5.7,9.2,66,0.00,SCT,SKC,0.00,WeatherDisplay:10.37,2013-04-16 16:03:00,
2013-04-16 11:08:00,39.9,28.7,30.27,NNE,23,6.8,11.5,64,0.00,SCT,SKC,0.00,WeatherDisplay:10.37,2013-04-16 16:08:00,
2013-04-16 11:13:00,40.4,28.8,30.26,NE,39,8.5,15.0,63,0.00,SCT,SKC,0.00,WeatherDisplay:10.37,2013-04-16 16:13:00,
2013-04-16 11:18:00,40.7,28.7,30.26,North,9,10.3,15.0,62,0.00,SCT,SKC,0.00,WeatherDisplay:10.37,2013-04-16 16:18:00,
2013-04-16 11:23:00,41.0,28.6,30.26,NNE,17,8.5,13.8,61,0.00,SCT,SKC,0.00,WeatherDisplay:10.37,2013-04-16 16:23:00,
2013-04-16 11:28:00,40.8,29.2,30.26,NNW,342,6.2,11.5,63,0.00,SCT,SKC,0.00,WeatherDisplay:10.37,2013-04-16 16:28:00,
2013-04-16 11:33:00,41.0,29.7,30.26,North,8,6.5,11.0,64,0.00,SCT,SKC,0.00,WeatherDisplay:10.37,2013-04-16 16:33:00,
2013-04-16 11:38:00,40.9,29.7,30.26,North,7,4.5,9.2,64,0.00,SCT,SKC,0.00,WeatherDisplay:10.37,2013-04-16 16:38:00,
2013-04-16 11:43:00,41.3,29.6,30.25,NE,47,8.1,9.0,63,0.00,SCT,SKC,0.00,WeatherDisplay:10.37,2013-04-16 16:43:00,
2013-04-16 11:48:00,41.5,29.4,30.25,North,358,7.4,11.5,62,0.00,SCT,SKC,0.00,WeatherDisplay:10.37,2013-04-16 16:48:00,
2013-04-16 11:53:00,42.0,29.1,30.25,NNE,22,7.6,11.5,60,0.00,SCT,SKC,0.00,WeatherDisplay:10.37,2013-04-16 16:53:00,
2013-04-16 11:58:00,42.3,29.8,30.25,North,6,4.7,9.0,61,0.00,SCT,SKC,0.00,WeatherDisplay:10.37,2013-04-16 16:58:00,
2013-04-16 12:03:00,42.2,28.9,30.25,NNE,27,4.9,8.1,59,0.00,SCT,SKC,0.00,WeatherDisplay:10.37,2013-04-16 17:03:00,
2013-04-16 12:08:00,43.4,30.4,30.25,NE,50,5.1,9.2,60,0.00,SCT,SKC,0.00,WeatherDisplay:10.37,2013-04-16 17:08:00,
2013-04-16 12:13:00,43.5,29.7,30.25,NW,321,3.4,8.1,58,0.00,SCT,SKC,0.00,WeatherDisplay:10.37,2013-04-16 17:13:00,
2013-04-16 12:18:00,43.6,28.9,30.25,ENE,60,7.9,11.5,56,0.00,SCT,SKC,0.00,WeatherDisplay:10.37,2013-04-16 17:18:00,
2013-04-16 12:23:00,43.6,29.8,30.25,NNE,20,7.6,11.5,58,0.00,CLR,SKC,0.00,WeatherDisplay:10.37,2013-04-16 17:23:00,
2013-04-16 12:28:00,43.9,28.8,30.24,NNE,23,13.2,18.4,55,0.00,CLR,SKC,0.00,WeatherDisplay:10.37,2013-04-16 17:28:00,
2013-04-16 12:33:00,43.8,28.7,30.24,NE,47,8.5,11.5,55,0.00,CLR,SKC,0.00,WeatherDisplay:10.37,2013-04-16 17:33:00,
2013-04-16 12:38:00,43.6,28.0,30.24,North,5,6.6,11.5,54,0.00,CLR,SKC,0.00,WeatherDisplay:10.37,2013-04-16 17:38:00,
2013-04-16 12:43:00,44.1,29.8,30.24,North,4,6.3,7.0,57,0.00,SCT,SKC,0.00,WeatherDisplay:10.37,2013-04-16 17:43:00,
2013-04-16 12:48:00,44.2,29.9,30.23,NNE,18,9.5,13.8,57,0.00,SCT,SKC,0.00,WeatherDisplay:10.37,2013-04-16 17:48:00,
2013-04-16 12:53:00,44.6,29.9,30.23,NNW,333,5.3,6.9,56,0.00,SCT,SKC,0.00,WeatherDisplay:10.37,2013-04-16 17:53:00,
2013-04-16 12:58:00,45.4,29.7,30.23,NNE,32,10.6,15.0,54,0.00,SCT,SKC,0.00,WeatherDisplay:10.37,2013-04-16 17:58:00,
2013-04-16 13:03:00,45.6,30.3,30.22,North,4,6.3,9.2,55,0.00,SCT,SKC,0.00,WeatherDisplay:10.37,2013-04-16 18:03:00,
2013-04-16 13:09:00,45.6,29.4,30.22,ENE,57,10.1,13.8,53,0.00,SCT,SKC,0.00,WeatherDisplay:10.37,2013-04-16 18:09:00,
2013-04-16 13:14:00,46.1,30.4,30.22,NNE,22,7.7,9.0,54,0.00,SCT,SKC,0.00,WeatherDisplay:10.37,2013-04-16 18:14:00,
2013-04-16 13:19:00,46.1,29.4,30.21,NE,42,9.7,11.5,52,0.00,SCT,SKC,0.00,WeatherDisplay:10.37,2013-04-16 18:19:00,
2013-04-16 13:24:00,46.7,29.5,30.21,NW,323,8.6,11.5,51,0.00,CLR,SKC,0.00,WeatherDisplay:10.37,2013-04-16 18:24:00,
2013-04-16 13:29:00,47.1,28.9,30.21,NNW,337,7.7,10.4,49,0.00,CLR,SKC,0.00,WeatherDisplay:10.37,2013-04-16 18:29:00,
2013-04-16 13:34:00,46.9,28.7,30.21,NE,47,6.9,11.5,49,0.00,CLR,SKC,0.00,WeatherDisplay:10.37,2013-04-16 18:34:00,
2013-04-16 13:39:00,46.7,28.5,30.21,North,352,10.8,16.1,49,0.00,CLR,SKC,0.00,WeatherDisplay:10.37,2013-04-16 18:39:00,
2013-04-16 13:44:00,46.5,28.3,30.21,NE,34,13.8,19.6,49,0.00,SCT,SKC,0.00,WeatherDisplay:10.37,2013-04-16 18:44:00,
2013-04-16 13:49:00,46.9,29.7,30.21,ENE,63,4.3,12.7,51,0.00,SCT,SKC,0.00,WeatherDisplay:10.37,2013-04-16 18:49:00,
2013-04-16 13:54:00,46.6,29.4,30.20,NNE,27,13.2,13.2,51,0.00,SCT,SKC,0.00,WeatherDisplay:10.37,2013-04-16 18:54:00,
2013-04-16 13:59:00,46.6,28.9,30.20,North,10,10.9,15.0,50,0.00,SCT,SKC,0.00,WeatherDisplay:10.37,2013-04-16 18:59:00,
2013-04-16 14:04:00,47.0,29.8,30.20,NNE,15,9.4,12.0,51,0.00,BKN,SKC,0.00,WeatherDisplay:10.37,2013-04-16 19:04:00,
2013-04-16 14:09:00,47.3,29.1,30.20,NE,55,10.4,13.8,49,0.00,BKN,SKC,0.00,WeatherDisplay:10.37,2013-04-16 19:09:00,
2013-04-16 14:14:00,47.7,30.0,30.20,NE,44,5.3,12.0,50,0.00,BKN,SKC,0.00,WeatherDisplay:10.37,2013-04-16 19:14:00,
2013-04-16 14:19:00,48.0,28.7,30.20,NE,53,9.2,12.0,47,0.00,BKN,SKC,0.00,WeatherDisplay:10.37,2013-04-16 19:19:00,
2013-04-16 14:24:00,47.9,29.1,30.20,NNE,25,9.3,15.0,48,0.00,BKN,SKC,0.00,WeatherDisplay:10.37,2013-04-16 19:24:00,
2013-04-16 14:29:00,47.9,29.1,30.20,NNE,16,8.2,13.8,48,0.00,BKN,SKC,0.00,WeatherDisplay:10.37,2013-04-16 19:29:00,
2013-04-16 14:34:00,47.7,28.4,30.20,NW,314,7.4,10.4,47,0.00,BKN,SKC,0.00,WeatherDisplay:10.37,2013-04-16 19:34:00,
2013-04-16 14:39:00,48.0,28.7,30.19,NE,36,11.8,19.6,47,0.00,BKN,SKC,0.00,WeatherDisplay:10.37,2013-04-16 19:39:00,
2013-04-16 14:44:00,47.7,27.9,30.19,NNW,341,8.1,11.5,46,0.00,BKN,SKC,0.00,WeatherDisplay:10.37,2013-04-16 19:44:00,
2013-04-16 14:49:00,48.6,29.3,30.20,NNW,333,7.5,11.5,47,0.00,BKN,SKC,0.00,WeatherDisplay:10.37,2013-04-16 19:49:00,
2013-04-16 14:54:00,48.7,28.8,30.20,NE,53,11.7,16.1,46,0.00,BKN,SKC,0.00,WeatherDisplay:10.37,2013-04-16 19:54:00,
2013-04-16 14:59:00,48.7,29.4,30.19,NNE,27,9.3,14.0,47,0.00,BKN,SKC,0.00,WeatherDisplay:10.37,2013-04-16 19:59:00,
2013-04-16 15:04:00,48.6,28.7,30.19,NE,45,13.3,17.3,46,0.00,OVC,SKC,0.00,WeatherDisplay:10.37,2013-04-16 20:04:00,
2013-04-16 15:09:00,48.6,28.7,30.19,NE,34,11.6,18.4,46,0.00,OVC,SKC,0.00,WeatherDisplay:10.37,2013-04-16 20:09:00,
2013-04-16 15:14:00,48.8,29.4,30.18,ENE,60,8.1,11.5,47,0.00,OVC,SKC,0.00,WeatherDisplay:10.37,2013-04-16 20:14:00,
2013-04-16 15:19:00,49.4,29.5,30.18,NE,53,12.3,19.6,46,0.00,OVC,SKC,0.00,WeatherDisplay:10.37,2013-04-16 20:19:00,
2013-04-16 15:24:00,49.5,30.1,30.18,NNE,27,6.2,10.4,47,0.00,BKN,SKC,0.00,WeatherDisplay:10.37,2013-04-16 20:24:00,
2013-04-16 15:29:00,49.3,28.3,30.18,NE,46,9.2,11.5,44,0.00,BKN,SKC,0.00,WeatherDisplay:10.37,2013-04-16 20:29:00,
2013-04-16 15:34:00,49.4,30.5,30.18,NE,53,6.0,9.2,48,0.00,BKN,SKC,0.00,WeatherDisplay:10.37,2013-04-16 20:34:00,
2013-04-16 15:39:00,50.0,30.0,30.18,NNE,19,13.8,16.1,46,0.00,BKN,SKC,0.00,WeatherDisplay:10.37,2013-04-16 20:39:00,
2013-04-16 15:44:00,50.0,30.0,30.17,NE,40,8.9,11.5,46,0.00,BKN,SKC,0.00,WeatherDisplay:10.37,2013-04-16 20:44:00,
2013-04-16 15:49:00,49.6,29.1,30.18,NE,51,9.2,13.8,45,0.00,BKN,SKC,0.00,WeatherDisplay:10.37,2013-04-16 20:49:00,
2013-04-16 15:54:00,49.5,29.6,30.17,NNW,346,8.9,12.7,46,0.00,BKN,SKC,0.00,WeatherDisplay:10.37,2013-04-16 20:54:00,
2013-04-16 15:59:00,49.5,29.0,30.17,NNE,25,7.8,13.8,45,0.00,BKN,SKC,0.00,WeatherDisplay:10.37,2013-04-16 20:59:00,
2013-04-16 16:04:00,49.6,29.1,30.17,NNE,30,11.4,17.3,45,0.00,SCT,SKC,0.00,WeatherDisplay:10.37,2013-04-16 21:04:00,
2013-04-16 16:09:00,49.8,29.8,30.17,NNE,27,7.9,12.7,46,0.00,SCT,SKC,0.00,WeatherDisplay:10.37,2013-04-16 21:09:00,
2013-04-16 16:14:00,50.1,29.6,30.17,ENE,58,6.7,10.4,45,0.00,SCT,SKC,0.00,WeatherDisplay:10.37,2013-04-16 21:14:00,
2013-04-16 16:19:00,50.3,29.2,30.16,NE,51,11.4,15.0,44,0.00,SCT,SKC,0.00,WeatherDisplay:10.37,2013-04-16 21:19:00,
2013-04-16 16:24:00,50.5,30.5,30.16,NE,47,6.5,11.5,46,0.00,SCT,SKC,0.00,WeatherDisplay:10.37,2013-04-16 21:24:00,
2013-04-16 16:29:00,50.6,29.5,30.16,NE,56,9.5,11.5,44,0.00,SCT,SKC,0.00,WeatherDisplay:10.37,2013-04-16 21:29:00,
2013-04-16 16:34:00,50.8,30.2,30.16,NE,37,10.6,16.1,45,0.00,SCT,SKC,0.00,WeatherDisplay:10.37,2013-04-16 21:34:00,
2013-04-16 16:39:00,50.5,29.9,30.16,NE,53,7.9,10.4,45,0.00,SCT,SKC,0.00,WeatherDisplay:10.37,2013-04-16 21:39:00,
2013-04-16 16:44:00,50.5,29.9,30.16,NNE,25,6.5,11.5,45,0.00,SCT,SKC,0.00,WeatherDisplay:10.37,2013-04-16 21:44:00,
2013-04-16 16:49:00,50.5,29.4,30.16,ENE,70,11.6,17.3,44,0.00,SCT,SKC,0.00,WeatherDisplay:10.37,2013-04-16 21:49:00,
2013-04-16 16:54:00,50.7,29.0,30.16,NE,49,11.5,17.3,43,0.00,SCT,SKC,0.00,WeatherDisplay:10.37,2013-04-16 21:54:00,
2013-04-16 16:59:00,50.5,29.9,30.15,NNE,27,10.1,12.7,45,0.00,SCT,SKC,0.00,WeatherDisplay:10.37,2013-04-16 21:59:00,
2013-04-16 17:04:00,50.4,29.8,30.16,ENE,62,7.7,11.5,45,0.00,BKN,SKC,0.00,WeatherDisplay:10.37,2013-04-16 22:04:00,
2013-04-16 17:09:00,50.4,29.8,30.16,NNE,25,8.2,16.1,45,0.00,BKN,SKC,0.00,WeatherDisplay:10.37,2013-04-16 22:09:00,
2013-04-16 17:14:00,50.3,30.3,30.15,NNE,28,10.4,15.0,46,0.00,BKN,SKC,0.00,WeatherDisplay:10.37,2013-04-16 22:14:00,
2013-04-16 17:19:00,50.2,30.7,30.15,NE,46,9.2,11.5,47,0.00,BKN,SKC,0.00,WeatherDisplay:10.37,2013-04-16 22:19:00,
2013-04-16 17:24:00,50.2,30.7,30.15,NE,47,10.9,13.0,47,0.00,BKN,SKC,0.00,WeatherDisplay:10.37,2013-04-16 22:24:00,
2013-04-16 17:29:00,50.2,31.2,30.15,ENE,63,6.8,9.2,48,0.00,BKN,SKC,0.00,WeatherDisplay:10.37,2013-04-16 22:29:00,
2013-04-16 17:34:00,50.4,31.4,30.15,ENE,72,7.7,10.0,48,0.00,BKN,SKC,0.00,WeatherDisplay:10.37,2013-04-16 22:34:00,
2013-04-16 17:39:00,50.3,31.3,30.16,NE,55,10.2,17.3,48,0.00,BKN,SKC,0.00,WeatherDisplay:10.37,2013-04-16 22:39:00,
2013-04-16 17:44:00,50.3,31.3,30.15,NE,46,8.5,16.1,48,0.00,SCT,SKC,0.00,WeatherDisplay:10.37,2013-04-16 22:44:00,
2013-04-16 17:49:00,50.3,31.3,30.15,NE,47,8.4,13.8,48,0.00,SCT,SKC,0.00,WeatherDisplay:10.37,2013-04-16 22:49:00,
2013-04-16 17:54:00,50.2,31.2,30.15,NE,44,6.6,13.8,48,0.00,SCT,SKC,0.00,WeatherDisplay:10.37,2013-04-16 22:54:00,
2013-04-16 17:59:00,50.2,31.8,30.16,East,89,6.1,9.2,49,0.00,SCT,SKC,0.00,WeatherDisplay:10.37,2013-04-16 22:59:00,
2013-04-16 18:04:00,50.1,31.7,30.16,East,84,6.2,11.0,49,0.00,BKN,SKC,0.00,WeatherDisplay:10.37,2013-04-16 23:04:00,
2013-04-16 18:09:00,50.2,31.8,30.16,NE,51,4.1,8.1,49,0.00,BKN,SKC,0.00,WeatherDisplay:10.37,2013-04-16 23:09:00,
2013-04-16 18:14:00,50.2,30.7,30.16,NE,47,11.8,15.0,47,0.00,BKN,SKC,0.00,WeatherDisplay:10.37,2013-04-16 23:14:00,
2013-04-16 18:19:00,50.0,31.6,30.15,NNE,22,10.2,13.8,49,0.00,BKN,SKC,0.00,WeatherDisplay:10.37,2013-04-16 23:19:00,
2013-04-16 18:24:00,49.9,31.5,30.15,ENE,58,12.4,13.8,49,0.00,OVC,SKC,0.00,WeatherDisplay:10.37,2013-04-16 23:24:00,
2013-04-16 18:29:00,49.9,31.0,30.14,NE,37,10.1,15.0,48,0.00,OVC,SKC,0.00,WeatherDisplay:10.37,2013-04-16 23:29:00,
2013-04-16 18:34:00,49.9,31.0,30.15,ENE,57,9.6,12.7,48,0.00,OVC,SKC,0.00,WeatherDisplay:10.37,2013-04-16 23:34:00,
2013-04-16 18:39:00,49.9,31.0,30.15,NE,52,7.2,11.0,48,0.00,OVC,SKC,0.00,WeatherDisplay:10.37,2013-04-16 23:39:00,
2013-04-16 18:44:00,49.8,31.4,30.14,NE,46,7.2,9.2,49,0.00,OVC,SKC,0.00,WeatherDisplay:10.37,2013-04-16 23:44:00,
2013-04-16 18:49:00,49.9,31.5,30.15,ENE,63,10.7,11.5,49,0.00,OVC,SKC,0.00,WeatherDisplay:10.37,2013-04-16 23:49:00,
2013-04-16 18:54:00,49.8,31.4,30.15,North,1,4.5,10.4,49,0.00,OVC,SKC,0.00,WeatherDisplay:10.37,2013-04-16 23:54:00,
2013-04-16 18:59:00,49.8,31.4,30.14,NE,34,6.6,15.0,49,0.00,OVC,SKC,0.00,WeatherDisplay:10.37,2013-04-16 23:59:00,
2013-04-16 19:05:00,49.7,31.8,30.14,NNE,25,9.7,13.8,50,0.00,OVC,SKC,0.00,WeatherDisplay:10.37,2013-04-17 00:05:00,
2013-04-16 19:10:00,49.6,31.7,30.14,NE,53,8.6,12.7,50,0.00,OVC,SKC,0.00,WeatherDisplay:10.37,2013-04-17 00:10:00,
2013-04-16 19:15:00,49.4,31.5,30.14,NE,34,13.4,15.0,50,0.00,OVC,SKC,0.00,WeatherDisplay:10.37,2013-04-17 00:15:00,
2013-04-16 19:20:00,49.3,31.9,30.14,NE,34,14.2,17.0,51,0.00,OVC,SKC,0.00,WeatherDisplay:10.37,2013-04-17 00:20:00,
2013-04-16 19:25:00,49.1,31.7,30.14,NE,51,12.6,18.0,51,0.00,OVC,SKC,0.00,WeatherDisplay:10.37,2013-04-17 00:25:00,
2013-04-16 19:30:00,48.9,32.0,30.14,NE,55,13.1,19.6,52,0.00,OVC,SKC,0.00,WeatherDisplay:10.37,2013-04-17 00:30:00,
2013-04-16 19:35:00,48.8,32.4,30.15,NE,47,6.2,17.3,53,0.00,OVC,SKC,0.00,WeatherDisplay:10.37,2013-04-17 00:35:00,
2013-04-16 19:40:00,48.7,32.3,30.15,ENE,63,10.1,19.6,53,0.00,OVC,SKC,0.00,WeatherDisplay:10.37,2013-04-17 00:40:00,
2013-04-16 19:45:00,48.6,32.2,30.15,NNE,32,6.9,6.9,53,0.00,OVC,SKC,0.00,WeatherDisplay:10.37,2013-04-17 00:45:00,
2013-04-16 19:50:00,48.5,32.1,30.15,ENE,72,10.5,15.0,53,0.00,OVC,SKC,0.00,WeatherDisplay:10.37,2013-04-17 00:50:00,
2013-04-16 19:55:00,48.4,32.0,30.15,NE,37,8.1,11.5,53,0.00,OVC,SKC,0.00,WeatherDisplay:10.37,2013-04-17 00:55:00,
2013-04-16 20:00:00,48.4,32.5,30.15,ENE,62,7.0,18.0,54,0.00,OVC,SKC,0.00,WeatherDisplay:10.37,2013-04-17 01:00:00,
2013-04-16 20:05:00,48.3,32.9,30.16,ENE,71,10.8,13.8,55,0.00,OVC,SKC,0.00,WeatherDisplay:10.37,2013-04-17 01:05:00,
2013-04-16 20:10:00,48.2,32.8,30.16,East,82,8.4,13.8,55,0.00,OVC,SKC,0.00,WeatherDisplay:10.37,2013-04-17 01:10:00,
2013-04-16 20:15:00,48.2,33.2,30.16,ENE,64,9.0,16.0,56,0.00,OVC,SKC,0.00,WeatherDisplay:10.37,2013-04-17 01:15:00,
2013-04-16 20:20:00,48.1,33.1,30.17,NE,51,7.3,11.5,56,0.00,OVC,SKC,0.00,WeatherDisplay:10.37,2013-04-17 01:20:00,
2013-04-16 20:25:00,48.1,33.6,30.17,East,98,7.1,8.0,57,0.00,OVC,SKC,0.00,WeatherDisplay:10.37,2013-04-17 01:25:00,
2013-04-16 20:30:00,48.1,33.6,30.17,NNE,14,6.3,10.4,57,0.00,OVC,SKC,0.00,WeatherDisplay:10.37,2013-04-17 01:30:00,
2013-04-16 20:35:00,48.1,34.0,30.17,East,96,5.5,6.9,58,0.00,OVC,SKC,0.00,WeatherDisplay:10.37,2013-04-17 01:35:00,
2013-04-16 20:40:00,48.0,33.9,30.17,NNE,30,5.6,10.4,58,0.00,OVC,SKC,0.00,WeatherDisplay:10.37,2013-04-17 01:40:00,
2013-04-16 20:45:00,47.9,33.8,30.17,East,80,6.9,9.2,58,0.00,OVC,SKC,0.00,WeatherDisplay:10.37,2013-04-17 01:45:00,
2013-04-16 20:50:00,47.9,33.8,30.17,ENE,66,5.7,11.5,58,0.00,OVC,SKC,0.00,WeatherDisplay:10.37,2013-04-17 01:50:00,
2013-04-16 20:55:00,47.8,33.7,30.17,ENE,58,10.9,10.9,58,0.00,OVC,SKC,0.00,WeatherDisplay:10.37,2013-04-17 01:55:00,
2013-04-16 21:00:00,47.7,34.1,30.17,NNE,27,4.3,11.5,59,0.00,OVC,SKC,0.00,WeatherDisplay:10.37,2013-04-17 02:00:00,
2013-04-16 21:05:00,47.7,34.1,30.17,East,100,7.7,11.5,59,0.00,OVC,SKC,0.00,WeatherDisplay:10.37,2013-04-17 02:05:00,
2013-04-16 21:10:00,47.6,34.0,30.17,NE,49,9.9,16.1,59,0.00,OVC,SKC,0.00,WeatherDisplay:10.37,2013-04-17 02:10:00,
2013-04-16 21:15:00,47.6,34.0,30.18,ENE,68,6.9,13.8,59,0.00,OVC,SKC,0.00,WeatherDisplay:10.37,2013-04-17 02:15:00,
2013-04-16 21:20:00,47.6,34.0,30.18,NE,49,9.9,13.8,59,0.00,OVC,SKC,0.00,WeatherDisplay:10.37,2013-04-17 02:20:00,
2013-04-16 21:25:00,47.5,33.9,30.17,ENE,58,5.0,12.7,59,0.00,OVC,SKC,0.00,WeatherDisplay:10.37,2013-04-17 02:25:00,
2013-04-16 21:30:00,47.5,33.9,30.17,ENE,57,11.7,14.0,59,0.00,OVC,SKC,0.00,WeatherDisplay:10.37,2013-04-17 02:30:00,
2013-04-16 21:35:00,47.5,34.3,30.18,NE,51,6.6,13.0,60,0.00,OVC,SKC,0.00,WeatherDisplay:10.37,2013-04-17 02:35:00,
2013-04-16 21:40:00,47.5,34.3,30.18,ENE,71,6.3,11.5,60,0.00,OVC,SKC,0.00,WeatherDisplay:10.37,2013-04-17 02:40:00,
2013-04-16 21:45:00,47.4,34.2,30.18,ENE,64,8.4,9.2,60,0.00,OVC,SKC,0.00,WeatherDisplay:10.37,2013-04-17 02:45:00,
2013-04-16 21:50:00,47.3,34.1,30.18,NE,48,9.3,13.8,60,0.00,OVC,SKC,0.00,WeatherDisplay:10.37,2013-04-17 02:50:00,
2013-04-16 21:55:00,47.3,34.1,30.18,ESE,116,9.2,13.8,60,0.00,OVC,SKC,0.00,WeatherDisplay:10.37,2013-04-17 02:55:00,
2013-04-16 22:00:00,47.3,34.1,30.18,ENE,59,5.2,8.1,60,0.00,OVC,SKC,0.00,WeatherDisplay:10.37,2013-04-17 03:00:00,
2013-04-16 22:05:00,47.3,34.5,30.18,ENE,63,10.6,11.5,61,0.00,OVC,SKC,0.00,WeatherDisplay:10.37,2013-04-17 03:05:00,
2013-04-16 22:10:00,47.2,34.4,30.17,ENE,63,5.5,13.8,61,0.00,OVC,SKC,0.00,WeatherDisplay:10.37,2013-04-17 03:10:00,
2013-04-16 22:15:00,47.2,34.8,30.17,NNE,28,7.6,13.8,62,0.00,OVC,SKC,0.00,WeatherDisplay:10.37,2013-04-17 03:15:00,
2013-04-16 22:20:00,47.1,34.7,30.17,NNE,25,5.0,15.0,62,0.00,OVC,SKC,0.00,WeatherDisplay:10.37,2013-04-17 03:20:00,
2013-04-16 22:25:00,47.0,34.6,30.17,ENE,68,12.2,15.0,62,0.00,OVC,SKC,0.00,WeatherDisplay:10.37,2013-04-17 03:25:00,
2013-04-16 22:30:00,47.0,34.6,30.18,NE,41,10.3,15.0,62,0.00,OVC,SKC,0.00,WeatherDisplay:10.37,2013-04-17 03:30:00,
2013-04-16 22:35:00,47.0,34.6,30.17,ENE,66,8.4,19.0,62,0.00,OVC,SKC,0.00,WeatherDisplay:10.37,2013-04-17 03:35:00,
2013-04-16 22:40:00,46.9,35.0,30.17,NNE,27,7.2,12.7,63,0.00,OVC,SKC,0.00,WeatherDisplay:10.37,2013-04-17 03:40:00,
2013-04-16 22:45:00,46.9,35.0,30.17,ENE,65,11.1,19.6,63,0.00,OVC,SKC,0.00,WeatherDisplay:10.37,2013-04-17 03:45:00,
2013-04-16 22:50:00,46.8,34.9,30.17,NE,52,9.3,14.0,63,0.00,OVC,SKC,0.00,WeatherDisplay:10.37,2013-04-17 03:50:00,
2013-04-16 22:55:00,46.8,34.9,30.17,ENE,58,6.7,10.4,63,0.00,OVC,SKC,0.00,WeatherDisplay:10.37,2013-04-17 03:55:00,
2013-04-16 23:00:00,46.7,35.2,30.17,ENE,71,6.3,8.0,64,0.00,OVC,SKC,0.00,WeatherDisplay:10.37,2013-04-17 04:00:00,
2013-04-16 23:05:00,46.7,35.2,30.17,NE,44,9.1,11.5,64,0.00,OVC,SKC,0.00,WeatherDisplay:10.37,2013-04-17 04:05:00,
2013-04-16 23:10:00,46.7,35.2,30.17,NE,49,6.6,10.4,64,0.00,OVC,SKC,0.00,WeatherDisplay:10.37,2013-04-17 04:10:00,
2013-04-16 23:15:00,46.6,35.1,30.17,NE,53,8.4,11.5,64,0.00,OVC,SKC,0.00,WeatherDisplay:10.37,2013-04-17 04:15:00,
2013-04-16 23:20:00,46.6,35.1,30.17,ENE,73,11.2,16.1,64,0.00,OVC,SKC,0.00,WeatherDisplay:10.37,2013-04-17 04:20:00,
2013-04-16 23:25:00,46.6,35.5,30.17,NNE,23,6.5,12.7,65,0.00,OVC,SKC,0.00,WeatherDisplay:10.37,2013-04-17 04:25:00,
2013-04-16 23:30:00,46.5,35.0,30.17,ENE,70,8.2,11.5,64,0.00,OVC,SKC,0.00,WeatherDisplay:10.37,2013-04-17 04:30:00,
2013-04-16 23:35:00,46.5,35.0,30.17,ENE,63,7.5,9.2,64,0.00,OVC,SKC,0.00,WeatherDisplay:10.37,2013-04-17 04:35:00,
2013-04-16 23:40:00,46.5,35.4,30.17,ENE,60,6.0,8.1,65,0.00,OVC,SKC,0.00,WeatherDisplay:10.37,2013-04-17 04:40:00,
2013-04-16 23:45:00,46.5,35.4,30.17,East,89,5.2,8.1,65,0.00,OVC,SKC,0.00,WeatherDisplay:10.37,2013-04-17 04:45:00,
2013-04-16 23:50:00,46.4,35.3,30.16,ENE,68,6.7,11.5,65,0.00,OVC,SKC,0.00,WeatherDisplay:10.37,2013-04-17 04:50:00,
2013-04-16 23:55:00,46.4,35.3,30.17,East,82,7.4,13.8,65,0.00,OVC,SKC,0.00,WeatherDisplay:10.37,2013-04-17 04:55:00,